Regional Weather Roundup
Issued by NWS Columbia, SC

Current Version | Previous Version | Text Only | Print | Product List | Glossary On
Versions: 1 2 3 4 5 6 7 8 9 10 11 12 13 14 15 16 17 18 19 20 21 22 23 24 25 26 27
000
ASUS42 KCAE 011010
RWRCAE
REGIONAL WEATHER ROUNDUP
NATIONAL WEATHER SERVICE COLUMBIA SC
600 AM EDT SUN MAY 01 2016

NOTE: "FAIR" INDICATES FEW OR NO CLOUDS BELOW 12,000 FEET WITH NO
SIGNIFICANT WEATHER AND/OR OBSTRUCTIONS TO VISIBILITY.

NOT ALL STATIONS ARE QUALITY CONTROLLED BY THE NATIONAL
WEATHER SERVICE. USE DATA WITH CAUTION...ESPECIALLY
DEWPOINT OBSERVATIONS.

SCZ001>056-GAZ040-063>065-077-011100-
...UPSTATE SOUTH CAROLINA...

CITY           SKY/WX    TMP DP  RH WIND       PRES   REMARKS
ANDERSON       LGT RAIN  67  66  97 CALM      30.00R
LIBERTY          N/A     64  63  98 NE3       30.02R
SPARTANBURG    CLOUDY    64  63  94 CALM      30.00F
CLEMSON        HVY RAIN  66  63  90 N3        30.02R FOG
GREENVILLE     TSTM      64  62  93 NW6       30.03R VSB 1
GREENWOOD      CLOUDY    70  66  87 S10       30.01S
GREER          TSTM      63  63 100 NW8G16    30.00S VSB 1
ROCK HILL        N/A    N/A N/A N/A MISG      30.03
CHESTER        CLOUDY    66  64  94 SE8       30.03R
LAURENS        CLOUDY    68  66  94 SE10      29.99F


...CENTRAL SOUTH CAROLINA...

CITY           SKY/WX    TMP DP  RH WIND       PRES   REMARKS
COLUMBIA APT   CLOUDY    72  66  81 SE8       30.02R
COLUMBIA OWENS CLOUDY    70  66  87 VRB3      30.03S
MCENTIRE ANGB  CLOUDY    69  66  92 SE7       30.03F
ORANGEBURG     CLOUDY    71  67  87 CALM      30.04R
SUMTER SHAW    CLOUDY    68  65  89 SE7       30.02S
NEWBERRY       CLOUDY    68  68 100 SE7       30.03S
AIKEN          CLOUDY    70  66  88 SE5       30.05S
BARNWELL       CLOUDY    73  73 100 SE7       30.03S
CAMDEN         PTSUNNY   68  64  88 SE6       30.04S
LANCASTER      CLOUDY    66  66 100 SE8       30.03S


...EASTERN AND COASTAL SOUTH CAROLINA...

CITY           SKY/WX    TMP DP  RH WIND       PRES   REMARKS
MYRTLE BEACH   CLOUDY    72  63  73 SE9       30.09F
N MYRTLE BCH   CLOUDY    71  66  84 S8        30.08S
CONWAY         FAIR      63  63 100 CALM      30.07F FOG
MARION         CLOUDY    63  61  94 E6        30.06F FOG
HARTSVILLE     FAIR     N/A N/A N/A E6        30.04F
FLORENCE       CLOUDY    65  62  90 SE5       30.06F
CHARLESTON APT CLOUDY    73  65  75 SE13      30.03S
MOUNT PLEASANT FAIR      73  66  78 SE6       30.04S
WALTERBORO     CLOUDY    72  72 100 SE3       30.04R
BEAUFORT       CLOUDY    76  70  82 SE7       30.03R


...EASTERN GEORGIA...

CITY           SKY/WX    TMP DP  RH WIND       PRES   REMARKS
AUGUSTA BUSH F CLOUDY    72  69  90 SE7       30.00S
AUGUSTA DANIEL CLOUDY    73  67  81 SE5       30.01S
THOMSON        CLOUDY    73  72  95 S3        30.04S
WASHINGTON     MOCLDY    66  66 100 CALM      30.00S
CLAXTON        FAIR      72  71  97 CALM      30.02R
SYLVANIA       PTSUNNY   72  72  99 CALM      30.02S FOG
STATESBORO     MOCLDY    75  74  97 SE5       30.01S
SAVANNAH       MOCLDY    74  71  91 S8        30.03R


...SOUTHERN NORTH CAROLINA...

CITY           SKY/WX    TMP DP  RH WIND       PRES   REMARKS
CHARLOTTE      CLOUDY    66  63  90 SE12      30.03S
MONROE         CLOUDY    65  63  93 VRB3      30.04F
WADESBORO      CLOUDY    65  59  80 SE7       30.05F
ROCKINGHAM     CLOUDY    62  60  93 E7        30.07R
RUTHERFORDTON  TSTM     N/A N/A N/A NE5       30.04S
ASHEVILLE      RAIN      60  58  92 S6        30.05S FOG

$$




USA.gov is the U.S. government's official web portal to all federal, state and local government web resources and services.